Weather Roundup
Issued by NWS

Home | Current Version | Previous Version | Text Only | Print | Product List | Glossary On
Versions: 1 2 3 4 5 6 7 8 9 10 11 12 13 14 15 16 17 18 19 20 21 22 23 24 25 26 27 28 29 30 31 32 33 34 35 36 37 38 39 40 41 42 43 44 45 46 47 48 49 50
000
NZUS93 KARX 220659
HRRWXR

CURRENT HOURLY OBSERVATIONS ACROSS
MUCH OF THE UPPER MISSISSIPPI VALLEY
NATIONAL WEATHER SERVICE LA CROSSE WI
200 AM CDT WED OCT 22 2014


...SOUTHEAST MINNESOTA...


CITY           SKY/WX    TMP DP  RH WIND       PRES   REMARKS
ROCHESTER      CLEAR     40  36  86 SE12      30.22S WCI  33
ROCHESTER/MAYO FAIR      41  35  79 SE9       30.22S
WINONA         CLEAR     41  36  81 SE6       30.26S
AUSTIN         CLEAR     41  37  87 SE8       30.20S
ALBERT LEA     CLEAR     43  37  81 SE10G16   30.18S
DODGE CENTER   PTCLDY    39  37  93 SE14      30.19F WCI  31
PRESTON        CLEAR     38  35  89 SE7       30.23S WCI  32
OWATONNA       CLEAR     45  37  76 SE10G17   30.18S
FARIBAULT      CLEAR     45  37  76 SE10G18   30.18R
$$

...ELSEWHERE IN MINNESOTA...


CITY           SKY/WX    TMP DP  RH WIND       PRES   REMARKS
MINNEAPOLIS    CLEAR     43  36  76 SE10      30.19R
INTNL FALLS    CLEAR     40  35  83 SE10      30.07F WCI  33
DULUTH         CLEAR     41  35  79 S8        30.19R
RED WING       CLEAR     45  37  76 SE10      30.22S
REDWOOD FALLS  CLEAR     48  39  71 SE15      30.08S
MANKATO        CLEAR     46  34  61 S14       30.15R
WORTHINGTON    CLEAR     48  39  71 S15G21    30.09S
FAIRMONT       CLEAR     45  36  70 SE14      30.14R
$$

...SOUTHWEST WISCONSIN...


CITY           SKY/WX    TMP DP  RH WIND       PRES   REMARKS
LA CROSSE      CLEAR     41  35  79 E7        30.26F
PRAIRIE DU CHI CLEAR     39  36  87 CALM      30.28R
BOSCOBEL       PTCLDY    31  28  89 CALM      30.29S FOG
LONE ROCK      NOT AVBL
PLATTEVILLE    CLEAR     36  34  92 E9        30.28S WCI  29
FORT MC COY    CLEAR     28  27  99 CALM      30.29S
CAMP DOUGLAS   CLEAR     27  27 100 CALM      30.29S FOG
VIROQUA        FAIR      36  36 100 SE6       30.26S WCI  31
WIS DELLS      CLEAR     32  31  98 CALM      30.29S FOG
$$

...ELSEWHERE IN WISCONSIN...


CITY           SKY/WX    TMP DP  RH WIND       PRES   REMARKS
MILWAUKEE      PTCLDY    39  34  82 W7        30.28S WCI  34
MADISON        PTCLDY    30  28  92 CALM      30.30S FOG
GREEN BAY      CLEAR     31  30  96 NW6       30.32R WCI  25
EAU CLAIRE     CLEAR     40  34  79 SE7       30.25S
BLACK RVR FLS  FAIR      26  26 100 CALM      30.28R
MEDFORD        CLEAR     32  31  97 CALM      30.28R
WAUSAU         CLEAR     33  30  88 E5        30.29R WCI  29
WIS RAPIDS     CLEAR     29  28  96 CALM      30.31R FOG
MARSHFIELD     CLEAR     33  31  92 CALM      30.28R
RICE LAKE      CLEAR     38  34  84 SE6       30.25S WCI  34
$$

...NORTHEAST IOWA...


CITY           SKY/WX    TMP DP  RH WIND       PRES   REMARKS
DECORAH        CLEAR     39  36  87 SE8       30.24S WCI  34
MASON CITY     CLEAR     40  37  89 SE8       30.21R WCI  34
CHARLES CITY   CLEAR     41  37  87 SE9       30.23R
OELWEIN        CLEAR     39  37  93 SE10      30.25R WCI  32
$$

...ELSEWHERE IN IOWA...


CITY           SKY/WX    TMP DP  RH WIND       PRES   REMARKS
DES MOINES     CLEAR     49  39  68 SE9       30.19R
IOWA CITY      CLEAR     40  37  89 E5        30.26R
FORT DODGE     CLEAR     46  36  66 SE12      30.16S
$$

...NORTHERN ILLINOIS...


CITY           SKY/WX    TMP DP  RH WIND       PRES   REMARKS
CHICAGO-OHARE  CLOUDY    47  38  71 NE5       30.26R
CHICAGO-MIDWAY MOCLDY    51  41  68 S7        30.26R
MOLINE         CLEAR     34  32  92 E7        30.27R WCI  28
ROCKFORD       CLEAR     34  31  88 NE3       30.30R
PEORIA         CLEAR     42  36  79 E7        30.26S
$$

NOTE: "FAIR" INDICATES FEW OR NO CLOUDS BELOW 12,000 FEET WITH NO
SIGNIFICANT WEATHER AND/OR OBSTRUCTIONS TO VISIBILITY. WIND
SPEEDS ARE IN MILES-PER-HOUR.



USA.gov is the U.S. government's official web portal to all federal, state and local government web resources and services.